User: anonymous   Login
Location: *
(32.3758°S, 63.1185°E)
Time: 08:15:58
(UTC+00:00)
Language:

ARIANE 1 DEB - Orbit

View from above orbital plane
View from above orbital plane
View from above satellite
View from above satellite

Ground track
Ground track

The orbit data is extracted from the following two-line orbital elements,

1 39103U 86019VR  24146.78754140  .00001855  00000-0  58891-3 0  9996
2 39103  98.1528 150.5281 0023474 190.8976 344.0279 14.40914941167799
Epoch (UTC): 25 May 2024 18:54:03
Eccentricity: 0.0023474
inclination: 98.1528°
perigee height: 739 km
apogee height: 772 km
right ascension of ascending node: 150.5281°
argument of perigee: 190.8976°
revolutions per day: 14.40914941
mean anomaly at epoch: 344.0279°
orbit number at epoch: 16779

The dashed part of the orbit path shows where the satellite is in the earth's shadow,  

DLR